EHI
0 0 0 0 0 0 0 0 0 0 0 0 0 0 0 0 0 0 0 3 8 9 6 7 9 10 9 7 4 1 1 2 1 0 0 0 0 0 0 0 0 0 0 0 0 1 2 3 3
0 0 0 0 0 0 0 0 0 0 0 0 0 0 0 0 0 0 1 3 7 8 6 6 9 10 10 8 6 2 1 1 1 0 0 0 0 0 0 0 0 0 0 0 0 0 1 2 1
0 0 0 0 0 0 0 0 0 0 0 0 0 0 0 0 0 0 1 3 6 7 6 7 10 12 11 10 8 4 1 0 1 1 1 0 0 0 0 0 0 0 0 1 1 1 0 0 0
0 0 0 0 0 0 0 0 0 0 0 0 0 0 0 0 0 0 1 3 6 7 7 8 10 12 12 9 7 4 1 0 1 2 2 1 0 1 1 0 1 1 1 2 2 1 0 0 0
0 0 0 0 0 0 0 0 0 0 0 0 0 0 0 0 0 1 2 3 5 6 7 7 9 10 10 8 6 4 2 0 0 1 2 1 1 2 2 1 2 2 2 2 1 1 0 0 0
0 0 0 0 0 0 0 0 0 0 0 0 0 0 0 0 0 1 2 3 3 5 6 6 6 7 6 5 4 4 2 0 0 0 1 1 1 2 2 1 2 3 2 1 0 0 0 0 0
0 0 0 0 0 0 0 0 0 0 0 0 0 0 0 0 0 1 1 1 2 4 6 5 4 4 3 3 3 2 1 0 0 0 0 0 1 2 1 1 1 1 1 0 0 0 0 0 0
0 0 0 0 0 0 0 0 0 0 0 0 0 0 0 0 0 0 1 1 1 4 6 4 2 2 2 1 1 0 0 0 0 0 0 0 1 1 0 0 0 0 0 0 0 0 0 0 0
0 0 0 0 0 0 0 0 1 1 1 0 1 1 1 0 0 1 2 2 3 4 5 4 1 1 1 1 0 0 0 0 0 0 0 0 0 0 0 0 0 0 0 0 0 0 0 0 0
0 0 0 0 0 0 0 0 1 1 1 1 2 2 2 1 0 1 2 2 3 3 4 4 1 1 2 1 1 2 1 1 0 0 0 0 0 0 0 0 0 0 0 0 0 0 0 0 0
0 0 0 0 0 0 0 0 0 0 0 1 2 2 2 1 0 0 1 1 1 2 3 3 1 1 2 2 3 3 3 2 1 0 0 0 0 0 0 0 0 0 0 0 0 0 0 0 0
0 0 0 0 0 0 0 0 0 0 0 0 1 1 1 1 0 0 0 0 0 1 1 1 0 0 2 3 4 4 4 3 1 0 0 0 0 0 0 0 0 0 0 0 0 0 0 0 0
0 0 0 0 0 0 0 0 0 0 0 0 0 0 0 0 0 0 0 0 0 0 0 0 0 1 2 3 3 4 4 3 2 1 1 1 1 1 0 0 0 0 0 0 0 0 0 0 0
0 0 0 0 0 0 0 0 0 0 0 0 0 0 0 0 0 0 0 0 0 0 0 0 0 1 2 3 3 3 3 3 3 2 1 1 1 1 1 0 0 0 0 0 0 0 0 0 0
0 0 0 0 0 0 0 0 0 0 0 0 0 0 0 0 0 0 0 0 0 0 0 0 0 1 2 3 3 2 2 3 3 3 2 1 1 2 2 1 0 0 0 0 0 0 0 0 0
0 0 0 0 0 0 0 0 0 0 0 0 0 0 0 0 0 0 0 0 0 0 0 0 0 0 1 2 3 2 2 3 3 3 3 2 1 2 2 1 0 0 0 0 0 0 0 0 0
0 0 0 0 0 0 0 0 0 0 0 0 0 0 0 0 0 0 0 0 0 0 0 0 0 0 0 1 3 2 2 2 3 3 3 2 1 1 2 1 0 0 0 0 0 0 0 0 0
0 0 0 0 0 0 0 0 0 0 0 0 0 0 0 0 0 0 0 0 0 0 0 0 0 0 0 1 2 2 1 2 3 3 3 2 1 0 1 1 0 0 0 0 0 0 0 0 0
0 0 0 0 0 0 0 0 0 0 0 0 0 0 0 0 0 0 0 0 0 0 0 0 0 0 0 0 1 1 1 1 2 3 2 2 1 1 0 0 0 0 0 0 0 0 0 0 0
0 0 0 0 0 0 0 0 0 0 0 0 0 0 0 0 0 0 0 0 0 0 0 0 0 0 0 0 0 0 0 0 1 2 1 1 1 1 0 0 0 0 0 0 0 0 0 0 0
0 0 0 0 0 0 0 0 0 0 0 0 0 0 0 0 0 0 0 0 0 0 0 0 0 0 0 0 0 0 0 0 1 2 1 0 0 0 0 0 0 0 0 0 0 0 0 0 0
0 0 0 0 0 0 0 0 0 0 0 0 0 0 0 0 0 0 0 0 0 0 0 0 0 0 0 0 0 0 0 0 1 2 1 0 0 0 0 0 0 0 0 0 0 0 0 0 0
0 0 0 0 0 0 0 0 0 0 0 0 0 0 0 0 0 0 0 0 0 0 0 0 0 0 0 0 0 0 0 0 1 2 1 0 0 0 0 0 0 0 0 0 0 0 0 0 0
0 0 0 0 0 0 0 0 0 0 0 0 0 0 0 0 0 0 0 0 0 0 0 0 0 0 0 0 0 0 0 0 1 2 1 0 0 0 0 0 0 0 0 0 0 0 0 0 0
0 0 0 0 0 0 0 0 0 0 0 0 0 0 0 0 0 0 0 0 0 0 0 0 0 0 0 0 0 0 0 0 1 2 1 0 0 0 0 0 0 0 0 0 0 0 0 0 0
0 0 0 0 0 0 0 0 0 0 0 0 0 0 0 0 0 0 0 0 0 0 0 0 0 0 0 0 0 0 0 0 1 1 1 0 0 0 0 0 0 0 0 0 0 0 0 0 0
0 0 0 0 0 0 0 0 0 0 0 0 0 0 0 0 0 0 0 0 0 0 0 0 0 0 0 0 0 0 0 0 0 0 0 0 0 0 0 0 0 0 0 0 0 0 0 0 0
0 0 0 0 0 0 0 0 0 0 0 0 0 0 0 0 0 0 0 1 0 0 0 0 0 0 0 0 0 0 0 0 0 0 0 0 0 0 0 0 0 0 0 0 0 0 0 0 0
0 0 0 0 0 0 0 0 0 0 0 0 0 0 0 0 0 0 0 0 0 0 0 0 0 0 0 0 0 0 0 0 0 0 0 0 0 0 0 0 0 0 0 0 0 0 0 0 0
0 0 0 0 0 0 0 0 0 0 0 0 0 0 0 0 0 0 0 0 0 0 0 0 0 0 0 0 0 0 0 0 0 0 0 0 0 0 0 0 0 0 0 0 0 0 0 0 0
Wind_Speed
13 9 5 1 2 3 4 3 0 4 5 5 6 5 6 7 6 6 3 5 5 5 5 6 8 9 9 9 10 10 10 10 9 9 9 8 7 7 8 9 9 9 9 10 10 10 10 11 11
9 6 3 2 2 4 4 3 3 5 5 4 4 4 5 7 6 7 3 4 5 5 5 5 8 9 9 9 9 9 9 9 9 9 9 8 8 7 7 8 8 9 9 9 10 10 10 10 9
8 5 2 2 3 3 1 3 8 8 5 3 3 4 5 5 5 4 3 4 5 6 5 6 8 9 9 9 9 9 8 9 9 9 9 8 8 8 7 7 8 9 9 9 9 9 9 9 8
4 2 2 2 4 3 1 5 7 6 4 2 3 5 5 6 4 5 4 4 5 6 6 6 8 9 9 9 9 9 8 8 9 9 9 8 8 7 8 8 8 8 8 8 8 9 9 9 8
3 2 3 3 4 2 2 4 4 3 4 3 2 4 6 5 7 6 5 5 5 5 5 5 9 8 9 8 9 9 8 8 8 8 8 8 8 8 8 8 8 8 8 7 8 8 8 7 7
2 2 3 5 5 3 2 2 2 3 3 4 2 3 6 6 6 5 5 5 5 5 5 5 8 9 9 9 8 9 8 7 7 8 8 8 8 8 8 8 8 8 8 7 7 7 7 7 6
2 2 3 4 3 3 3 2 2 2 3 3 2 3 6 6 5 4 4 4 5 5 5 4 3 5 8 8 8 7 8 7 7 7 7 8 8 8 8 7 7 7 7 7 6 6 6 6 5
3 2 3 3 4 2 4 2 4 3 3 3 3 2 4 5 4 4 4 4 4 4 4 4 3 3 3 3 6 7 7 7 7 6 7 7 7 7 7 6 6 6 7 6 6 6 5 5 4
3 2 3 2 1 3 4 2 3 3 3 3 3 4 5 8 5 4 3 4 4 4 3 3 3 3 2 2 4 4 5 5 5 4 5 4 2 3 3 5 6 6 6 6 5 5 5 4 3
1 1 1 3 4 3 3 2 2 2 2 2 3 5 6 5 4 3 2 2 3 3 3 3 2 2 2 2 2 1 1 2 2 2 2 1 2 2 3 4 5 5 5 5 5 4 3 2 0
1 1 1 3 6 3 2 2 1 2 2 3 4 4 4 4 3 2 2 2 2 2 2 2 2 2 2 2 1 1 1 1 2 2 2 2 2 2 2 2 2 2 2 2 2 2 1 1 1
1 1 1 2 3 2 1 0 1 2 1 3 3 4 4 3 3 2 1 1 2 2 3 2 2 2 2 2 1 1 1 1 1 2 3 2 1 2 1 1 1 1 1 1 1 1 1 1 2
3 1 1 2 1 1 1 2 2 3 1 1 3 4 3 2 2 1 1 2 2 2 3 2 2 2 2 1 1 2 1 1 1 2 2 3 2 1 1 1 1 1 1 1 1 1 1 1 1
1 1 1 2 2 2 2 3 4 5 4 4 4 4 4 2 2 1 1 1 1 2 2 3 2 2 2 1 1 1 1 1 1 1 2 3 2 1 1 1 1 1 1 1 1 1 1 1 1
1 1 3 4 4 3 1 5 7 6 4 4 4 4 3 3 2 2 1 1 1 1 2 2 3 2 1 1 1 1 1 1 1 1 1 2 2 2 1 1 1 1 1 1 0 0 1 1 1
4 3 3 5 4 3 3 6 3 5 5 4 4 4 4 3 3 2 2 1 1 1 1 2 2 3 2 1 1 1 1 1 1 1 1 2 2 2 1 1 1 1 1 1 0 0 1 1 1
5 4 4 3 4 3 4 6 3 4 5 4 4 3 3 3 2 2 2 2 2 2 1 1 2 2 2 2 1 0 1 1 0 0 1 1 2 1 1 1 1 1 1 1 1 1 1 1 1
3 4 4 4 4 4 6 7 4 4 4 4 3 3 3 2 2 1 2 2 2 2 1 1 2 2 2 1 1 1 1 1 0 0 1 1 1 1 1 0 1 1 1 1 0 0 1 0 0
3 4 5 3 1 3 7 8 7 4 4 4 3 3 3 2 1 2 2 2 2 2 2 2 2 1 1 1 1 1 1 1 0 0 1 1 1 1 0 0 0 0 0 1 1 0 0 0 0
5 6 5 2 1 3 6 9 7 5 6 4 4 3 3 2 1 2 2 2 2 1 1 1 1 1 1 1 1 1 1 1 1 0 1 1 1 2 1 0 0 0 0 1 1 0 0 1 0
5 5 4 3 4 4 5 7 5 4 4 4 3 3 2 3 2 1 1 1 1 1 0 1 1 1 1 1 1 1 1 1 0 0 0 1 1 1 1 1 1 1 1 1 1 1 1 1 1
4 2 3 2 2 4 3 6 5 5 5 4 3 2 3 2 2 1 1 0 0 0 0 0 1 1 1 1 1 1 1 1 1 1 1 1 1 1 1 1 1 1 1 1 2 1 1 2 2
1 3 3 3 4 5 5 5 6 5 5 4 3 2 2 2 2 1 1 1 0 0 0 0 1 1 1 1 1 1 2 2 1 1 1 1 1 1 1 1 1 1 1 2 2 2 2 2 2
1 2 2 3 2 6 8 7 5 3 4 3 3 2 2 1 1 1 1 1 0 0 0 0 1 1 1 1 2 2 3 3 2 2 2 2 1 1 2 1 1 1 1 2 2 2 2 2 3
1 0 1 1 3 6 2 4 5 1 3 3 2 2 2 1 1 1 1 1 0 0 1 1 1 2 2 2 2 3 3 4 3 3 3 2 2 2 2 2 1 2 2 2 2 2 3 3 3
3 2 3 4 4 3 2 5 3 2 3 3 3 2 1 1 0 0 0 1 1 1 1 1 2 3 3 3 3 3 3 3 3 3 3 3 2 2 3 2 2 2 2 3 2 2 3 3 3
2 3 0 1 3 4 5 3 1 1 2 3 3 2 1 1 1 1 1 0 1 1 2 2 2 3 3 3 3 4 3 3 4 3 3 3 3 3 3 3 3 3 3 3 3 3 4 4 4
2 0 1 2 3 5 5 4 3 2 1 0 1 1 1 2 3 3 2 1 1 2 2 2 2 3 4 4 4 4 3 3 4 3 3 3 3 3 3 4 4 3 3 3 3 3 3 4 4
3 2 3 3 3 3 4 4 1 3 2 1 0 1 1 2 2 3 3 2 2 2 2 2 2 3 4 4 4 5 4 4 4 4 4 4 4 4 4 4 4 4 4 3 3 4 4 5 4
1 2 4 3 4 4 3 5 2 1 2 2 0 1 1 2 2 3 3 2 2 2 2 3 3 3 4 4 4 5 4 3 4 4 4 4 4 4 4 4 5 5 4 4 4 5 5 5 5
Wind_Direction
307 283 263 264 256 235 233 234 117 83 64 47 36 37 49 43 39 100 110 63 65 74 69 54 39 44 49 53 55 53 51 50 50 49 47 53 61 68 70 68 66 65 66 65 65 66 66 66 65
298 291 268 234 239 236 224 207 123 75 85 81 52 43 68 76 69 92 83 55 69 78 73 61 45 48 51 53 55 56 53 50 49 46 45 52 58 64 71 70 67 65 65 66 67 67 67 68 66
280 268 259 226 228 247 248 79 91 83 83 90 83 39 44 71 80 82 76 69 72 74 73 64 53 52 53 54 54 56 55 51 49 45 45 49 56 60 64 68 67 66 65 66 68 69 68 67 67
277 241 250 250 237 257 13 84 101 108 102 84 101 96 77 50 65 85 83 73 75 74 71 60 53 53 53 56 54 55 57 54 51 47 47 46 52 60 62 60 64 67 68 66 67 70 68 65 64
250 247 220 223 234 245 47 84 110 123 132 117 105 105 96 78 81 88 83 74 75 75 74 67 50 51 51 53 54 50 53 53 50 49 50 48 48 56 62 62 61 62 67 68 68 71 71 65 61
254 244 229 219 216 193 125 85 125 120 112 100 80 94 101 92 77 77 79 74 76 81 79 76 53 47 47 47 51 50 46 50 48 47 51 49 49 51 56 62 63 62 62 67 69 70 71 67 61
277 245 244 241 219 178 122 91 115 107 103 79 39 95 118 96 82 77 79 81 75 79 81 77 64 55 46 42 42 47 43 43 47 45 49 49 48 48 50 55 59 60 59 59 64 66 69 65 60
308 289 248 239 229 155 105 80 40 37 64 46 22 97 113 108 91 81 75 78 75 74 78 74 59 51 50 42 36 41 41 40 41 41 41 42 46 48 47 48 54 57 57 53 58 62 67 64 60
299 264 242 266 277 108 109 102 68 37 65 57 43 53 95 108 99 87 73 63 62 63 70 76 68 53 37 40 39 42 41 38 39 38 40 45 50 55 52 43 46 54 54 51 54 60 57 52 47
291 228 280 7 18 88 122 106 113 146 144 138 108 95 105 107 110 107 90 72 55 45 51 57 54 55 37 30 42 27 56 52 41 30 41 38 42 38 48 46 47 50 50 46 42 37 39 25 16
247 224 60 26 32 51 96 111 155 200 218 191 160 144 130 126 122 118 96 81 66 47 35 45 38 47 43 24 29 18 35 39 33 24 20 38 49 45 52 58 50 55 53 46 33 17 338 344 349
271 320 26 46 39 30 64 57 288 248 262 60 98 121 139 145 149 149 121 76 63 53 31 27 26 33 30 28 21 25 30 36 25 21 14 21 37 38 37 52 34 29 35 35 15 334 326 344 337
223 208 62 64 31 326 309 254 264 245 201 107 123 135 156 165 142 100 82 61 52 44 29 15 24 22 15 23 5 22 26 42 35 28 6 20 36 28 22 38 31 9 24 29 349 342 336 340 331
73 119 197 197 214 232 232 251 238 234 186 170 160 165 169 169 165 153 128 100 64 51 29 12 8 16 20 23 5 10 17 42 40 36 10 18 23 12 17 28 19 8 8 17 323 349 347 322 332
119 208 230 211 198 187 190 256 216 201 174 173 170 172 165 164 171 184 174 161 100 68 40 13 9 10 15 15 351 14 13 42 41 31 14 18 20 12 13 29 16 4 359 336 312 26 15 348 347
211 214 224 188 184 168 199 255 177 160 172 185 183 177 174 178 187 186 165 142 108 92 63 18 7 8 2 354 343 355 7 36 37 19 26 23 21 14 18 22 359 4 8 333 1 61 42 12 353
205 233 229 181 183 178 224 252 195 175 188 201 194 184 180 177 187 183 156 137 122 104 83 42 22 8 357 357 327 360 357 17 31 8 36 27 16 16 28 15 350 7 6 340 356 30 39 28 1
222 246 248 218 188 216 240 253 239 221 220 219 203 195 191 184 195 155 110 109 104 100 88 61 35 8 1 353 345 344 349 336 330 24 39 20 14 2 12 6 353 7 6 347 7 27 352 28 24
284 268 268 273 215 244 250 260 250 231 229 217 195 186 184 178 153 103 92 91 88 75 73 52 20 0 10 356 327 309 287 274 286 16 24 17 2 345 309 280 7 350 305 318 319 82 15 346 68
267 274 274 300 346 289 272 270 258 217 211 191 178 172 170 158 137 104 82 78 76 66 51 45 19 1 352 334 301 255 276 253 210 45 17 1 344 336 318 307 263 270 310 328 316 89 12 292 97
263 256 276 291 316 271 280 280 220 198 181 171 165 164 164 170 176 155 105 83 66 39 14 333 343 332 326 326 343 338 330 312 304 320 269 297 308 312 333 298 257 242 241 247 274 219 205 228 253
261 314 303 310 299 269 217 279 241 184 175 175 165 160 158 148 139 145 132 95 71 290 331 323 305 321 325 332 335 305 273 274 273 252 251 282 295 300 310 281 264 251 235 239 256 245 214 203 233
282 330 292 265 260 280 235 242 261 173 191 194 172 155 141 131 142 166 173 189 299 356 347 313 298 293 303 308 287 280 272 267 265 271 269 267 275 278 287 284 263 260 259 250 249 260 230 212 226
330 318 290 258 244 258 221 210 258 202 185 169 161 144 130 113 122 124 118 140 154 41 333 309 297 285 282 277 281 266 273 267 256 260 262 259 258 271 267 280 270 259 256 256 253 256 238 228 237
262 82 347 276 228 246 200 212 242 158 122 129 145 158 147 153 158 168 173 165 175 299 310 301 282 283 276 272 272 264 269 260 238 236 237 253 259 275 266 275 265 264 258 260 258 256 250 234 232
217 209 195 235 254 291 285 235 226 124 92 79 81 81 101 87 73 240 203 177 203 252 276 281 278 277 275 268 268 264 260 260 243 234 234 235 240 248 258 261 261 264 262 265 255 255 256 248 236
203 221 309 290 283 270 244 228 225 132 82 74 72 72 41 10 356 337 329 253 241 248 260 259 265 273 274 272 269 267 262 265 257 244 237 235 238 248 247 255 261 263 260 259 258 250 251 247 241
304 247 156 199 244 263 263 228 220 194 217 80 60 31 358 355 345 335 325 300 266 255 262 261 258 267 272 271 264 272 262 259 261 245 242 243 243 245 243 247 256 260 259 258 256 256 254 252 244
198 212 213 229 242 237 271 264 306 187 164 160 243 350 342 333 323 322 313 311 298 294 284 276 269 274 275 271 263 265 261 256 262 252 241 244 243 242 244 246 251 255 256 254 255 258 258 256 252
225 212 180 195 242 234 260 267 277 57 98 108 60 342 334 327 321 312 308 314 313 304 296 285 277 272 272 270 264 261 259 252 255 255 246 245 247 246 246 247 249 253 256 251 248 254 257 251 252